Other Public Products
Issued by NWS Charleston, SC

Current Version | Previous Version | Text Only | Print | Product List | Glossary Off
Versions: 1 2 3 4 5 6 7 8 9 10 11 12 13 14 15 16 17 18 19 20 21 22 23 24 25 26 27 28 29 30 31 32 33 34 35 36 37 38 39 40 41 42 43 44 45 46 47 48 49 50

000
FPUS82 KCHS 280412
OPUCHS

TEST...KCHS/KSAV Gateway Observations...TEST
National Weather Service Charleston SC
1200 AM EDT WED JUN 28 2017

NOTE: "fair" indicates few or no clouds below 12,000 feet with no
significant weather and/or obstructions to visibility.

SCZ050-WAZ558-NCZ071-TXZ119-213-PAZ071-DCZ001-FLZ074-172-MI076-
NYZ176-178-MAZ016-IL014-TNZ027-NJZ106-GAZ044-MD014-280500-

...Gateway Observations for Charleston International...

CITY           SKY/WX    TMP DP  RH WIND       PRES   REMARKS
Chas Airport   CLOUDY    72  66  81 N5        30.06S
Seattle        PTCLDY    69  50  50 CALM      29.97S
Charlotte      PTCLDY    67  52  58 CALM      30.12R
Dallas DFW     PTCLDY    79  74  84 SE7       29.94R
Dallas Love    PTCLDY    79  72  79 SE12      29.95R
Philladelphia  PTCLDY    69  47  45 NW13      30.06R
Wash National  PTCLDY    69  47  45 NW8       30.10R
Baltimore      PTCLDY    63  49  60 CALM      30.08R
Miami          MOCLDY    83  75  77 SE5       30.03R HX  90
Detroit        PTCLDY    62  46  55 W5        30.07S
Newark         PTCLDY    66  52  60 W6        30.02R
Laguardia      PTCLDY    69  53  56 N3        30.00R
J F K          PTCLDY    71  51  49 NW7       30.01R
Boston Logan   MOCLDY    63  56  78 SE3       29.98R
Ft. Lauderdale CLOUDY    83  76  79 SE3       30.03R HX  91
Chicago O`Hare PTCLDY    67  45  45 S9        30.03S
Chicago Midway PTCLDY    69  46  43 S6        30.04S
Houston Bush   PTCLDY    76  72  87 E7        29.94S
Houston Hobby  PTCLDY    78  72  81 CALM      29.92F
Nashville      CLEAR     68  58  70 S3        30.11R
Atlanta        PTCLDY    74  53  48 N8        30.10R

$$

GAZ044-118-TXZ119-213-NCZ071-DCZ001-MDZ014-506-PAZ021-071-NJZ106-
NYZ176-178-MAZ106-OHZ011-021-055-MIZ076-KYZ091-ILZ014-INZ047-
MNZ060-ONZ431-280500-

...Gateway Observations for Savannah International...

CITY           SKY/WX    TMP DP  RH WIND       PRES   REMARKS
Savannah Arpt  CLOUDY    73  69  87 CALM      30.06S
Atlanta        PTCLDY    74  53  48 N8        30.10R
Charlotte      PTCLDY    67  52  58 CALM      30.12R
Dallas DFW     PTCLDY    79  74  84 SE7       29.94R
Houston Bush   PTCLDY    76  72  87 E7        29.94S
Wash National  PTCLDY    69  47  45 NW8       30.10R
Wash Dulles    PTCLDY    62  47  57 NW3       30.10R
Baltimore      PTCLDY    63  49  60 CALM      30.08R
Philadelphia   PTCLDY    69  47  45 NW13      30.06R
Newark         PTCLDY    66  52  60 W6        30.02R
Laguardia      PTCLDY    69  53  56 N3        30.00R
J F K          PTCLDY    71  51  49 NW7       30.01R
Boston         MOCLDY    63  56  78 SE3       29.98R
Pittsburg      CLEAR     56  49  77 CALM      30.12R
Akron          CLEAR     58  44  60 SW5       30.12R
Cleveland      PTCLDY    63  45  51 S9        30.11R
Cincinnati     CLEAR     62  50  64 CALM      30.13R
Columbus       CLEAR     56  50  79 CALM      30.13R
Detroit        PTCLDY    62  46  55 W5        30.07S
Chicago O`Hare PTCLDY    67  45  45 S9        30.03S
Minneapolis    CLOUDY    71  44  37 S13       29.84R
Indianapolis   PTCLDY    62  47  57 S6        30.11R
Toronto Canada PTCLDY    55  45  67 W8        30.01S

$$




USA.gov is the U.S. government's official web portal to all federal, state and local government web resources and services.